FW6463 Weather Reports


time (UTC)temp
C
wind
direction
speed
KPH
gust
KPH
rain 1hr
cm
rain 24hr
cm
rain mn
cm
humidity
%
barometer
mb
20260902194526 27 307 3.2 4.8 0.00 0.81 0.81 89 1021.3
20260902193531 27 255 3.2 4.8 0.00 0.81 0.81 88 1021.5
20260902192539 27 285 4.8 6.4 0.00 0.81 0.81 90 1021.6
20260902191523 27 264 4.8 8.0 0.00 0.81 0.81 89 1021.7
20260902190529 26 301 3.2 6.4 0.00 0.81 0.81 89 1021.7
20260902185515 26 257 3.2 4.8 0.00 0.81 0.81 92 1021.7
20260902184520 25 233 1.6 4.8 0.00 0.81 0.81 92 1021.7
20260902183525 24 204 1.6 3.2 0.00 0.81 0.81 97 1021.9
20260902182611 23 162 1.6 4.8 0.00 0.81 0.81 99 1022.1
20260902181517 22 194 1.6 4.8 0.05 0.81 0.81 99 1022.2
20260902180522 22 0.0 0.0 0.05 0.81 0.81 99 1022.4
20260902175608 21 0.0 0.0 0.10 0.81 0.81 99 1022.4
20260902174526 21 0.0 1.6 0.13 0.81 0.81 99 1022.4
20260902173539 21 315 0.0 3.2 0.15 0.81 0.81 99 1022.7
20260902172524 21 203 0.0 1.6 0.20 0.81 0.81 99 1022.8
20260902171523 -17 0.0 0.0 0.20 0.76 0.76 1023.0
20260902170516 21 113 0.0 3.2 0.28 0.76 0.76 99 1023.2
20260902165521 21 182 3.2 4.8 0.36 0.71 0.71 99 1022.9
20260902164520 21 98 0.0 3.2 0.69 0.69 0.69 99 1023.8
20260902163518 21 173 3.2 4.8 0.66 0.66 0.66 99 1024.1
20260902162517 21 138 4.8 6.4 0.61 0.61 0.61 99 1025.0
20260902161516 21 240 3.2 6.4 0.56 0.56 0.56 99 1025.3
20260902160515 22 253 1.6 4.8 0.48 0.48 0.48 99 1025.5
20260902155533 22 86 4.8 11.3 0.36 0.36 0.36 99 1025.8
20260902154520 23 260 6.4 6.4 0.00 0.00 0.00 99 1024.3
20260902153524 25 295 8.0 12.9 0.00 0.00 0.00 99 1023.4
20260902152529 26 90 3.2 4.8 0.00 0.00 0.00 96 1022.9
20260902151516 26 303 3.2 6.4 0.00 0.00 0.00 94 1022.6
20260902150521 26 3.2 3.2 0.00 0.00 0.00 93 1022.5
20260902145526 26 4.8 6.4 0.00 0.00 0.00 92 1022.2
20260902144530 26 332 3.2 4.8 0.00 0.00 0.00 92 1022.2
20260902143518 26 167 3.2 4.8 0.00 0.00 0.00 93 1022.2
20260902142543 26 177 3.2 4.8 0.00 0.00 0.00 93 1022.4
20260902141527 26 90 3.2 4.8 0.00 0.00 0.00 93 1022.2
20260902140532 25 200 1.6 3.2 0.00 0.00 0.00 95 1022.2
20260902135519 25 265 3.2 4.8 0.00 0.00 0.00 94 1022.2
20260902134524 25 134 3.2 4.8 0.00 0.00 0.00 95 1022.0
20260902133529 25 248 0.0 3.2 0.00 0.00 0.00 96 1022.2
20260902132517 24 225 1.6 3.2 0.00 0.00 0.00 97 1022.3
20260902131521 24 217 1.6 3.2 0.00 0.00 0.00 99 1022.4
20260902130526 23 299 1.6 3.2 0.00 0.00 0.00 99 1022.4
20260902125531 23 265 3.2 3.2 0.00 0.00 0.00 99 1022.2
20260902124538 22 0.0 0.0 0.00 0.00 0.00 99 1022.0
20260902123523 21 0.0 0.0 0.00 0.00 0.00 99 1021.9
20260902122528 21 0.0 0.0 0.00 0.00 0.00 99 1021.9
20260902121533 20 0.0 0.0 0.00 0.00 0.00 99 1021.9
20260902120520 20 0.0 0.0 0.00 0.00 0.00 99 1021.9
20260902115525 20 0.0 0.0 0.00 0.00 0.00 99 1021.8
20260902114530 20 0.0 0.0 0.00 0.00 0.00 99 1021.7
20260902113516 20 0.0 0.0 0.00 0.00 0.00 99 1021.7
20260902112521 20 0.0 0.0 0.00 0.00 0.00 99 1021.6
20260902111606 20 0.0 0.0 0.00 0.00 0.00 99 1021.5
20260902110531 20 0.0 0.0 0.00 0.00 0.00 99 1021.5
20260902105518 20 0.0 0.0 0.00 0.00 0.00 99 1021.5
20260902104523 20 0.0 0.0 0.00 0.00 0.00 99 1021.7
20260902103528 20 277 0.0 3.2 0.00 0.00 0.00 99 1021.7
20260902102554 20 0.0 0.0 0.00 0.00 0.00 99 1021.8
20260902101520 20 0.0 0.0 0.00 0.00 0.00 99 1021.9
20260902100525 20 0.0 0.0 0.00 0.00 0.00 99 1021.9
20260902095530 20 0.0 0.0 0.00 0.00 0.00 99 1021.7
20260902094517 20 0.0 0.0 0.00 0.00 0.00 99 1021.4
20260902093521 20 0.0 0.0 0.00 0.00 0.00 99 1021.5
20260902092527 20 0.0 1.6 0.00 0.00 0.00 99 1021.5
20260902091531 20 268 0.0 3.2 0.00 0.00 0.00 99 1021.5
20260902090539 20 0.0 0.0 0.00 0.00 0.00 99 1021.5
20260902085523 20 0.0 0.0 0.00 0.00 0.00 99 1021.4
20260902084529 20 0.0 0.0 0.00 0.00 0.00 99 1021.1
20260902083516 20 0.0 0.0 0.00 0.00 0.00 99 1021.1
20260902082521 20 0.0 0.0 0.00 0.00 0.00 99 1020.9
20260902081526 20 0.0 0.0 0.00 0.00 0.00 99 1020.9
20260902080531 20 172 1.6 4.8 0.00 0.00 0.00 99 1020.9
20260902075538 20 0.0 0.0 0.00 0.00 0.00 99 1021.0
20260902074522 20 0.0 0.0 0.00 0.00 0.00 99 1020.9
20260902073528 20 0.0 0.0 0.00 0.00 0.00 99 1020.7
20260902072533 20 0.0 0.0 0.00 0.00 0.00 99 1020.8
20260902071519 20 178 1.6 4.8 0.00 0.00 0.00 99 1020.8
20260902070524 20 186 1.6 3.2 0.00 0.00 0.00 99 1020.8
20260902065529 20 0.0 0.0 0.00 0.00 0.00 99 1020.9
20260902064516 20 0.0 0.0 0.00 0.00 0.00 99 1020.9
20260902063521 20 0.0 0.0 0.00 0.00 0.00 99 1021.1
20260902062526 21 113 0.0 3.2 0.00 0.00 0.00 99 1021.1
20260902061531 21 173 1.6 3.2 0.00 0.00 0.00 99 1021.1
20260902060519 21 180 0.0 1.6 0.00 0.00 0.00 99 1021.0
20260902055523 21 0.0 0.0 0.00 0.00 0.00 99 1021.2
20260902054528 21 225 0.0 3.2 0.00 0.00 0.00 99 1021.2
20260902053553 21 180 0.0 3.2 0.00 0.00 0.00 99 1021.5
20260902052519 21 124 0.0 3.2 0.00 0.00 0.00 99 1021.5
20260902051525 21 0.0 0.0 0.00 0.00 0.00 99 1021.5
20260902050529 22 0.0 0.0 0.00 0.00 0.00 99 1021.5
20260902045517 22 23 1.6 3.2 0.00 0.00 0.00 99 1021.3
20260902044522 22 291 3.2 6.4 0.00 0.00 0.00 99 1021.2
20260902043526 22 293 3.2 4.8 0.00 0.00 0.00 99 1021.1
20260902042531 22 315 1.6 4.8 0.00 0.00 0.00 99 1021.3
20260902041518 22 0.0 0.0 0.00 0.00 0.00 98 1021.4
20260902040523 23 191 0.0 3.2 0.00 0.00 0.00 97 1021.4
20260902035528 23 230 3.2 8.0 0.00 0.00 0.00 96 1021.3
20260902034533 23 132 4.8 8.0 0.00 0.00 0.00 96 1021.7
20260902033520 24 157 4.8 6.4 0.00 0.00 0.00 94 1021.7
20260902032524 24 164 6.4 11.3 0.00 0.00 0.00 93 1021.7
20260902031530 25 107 8.0 16.1 0.00 0.00 0.00 92 1021.3
20260902030516 25 43 8.0 14.5 0.00 0.00 0.00 92 1020.9
20260902025522 25 313 4.8 9.7 0.00 0.00 0.00 92 1020.3
20260902024527 25 214 3.2 6.4 0.00 0.00 0.00 94 1020.0
20260902023525 25 330 1.6 4.8 0.00 0.00 0.00 98 1019.1
20260902022538 25 0.0 0.0 0.00 0.00 0.00 96 1019.0
20260902021543 26 180 0.0 1.6 0.00 0.00 0.00 95 1019.0
20260902020522 26 170 1.6 4.8 0.00 0.00 0.00 92 1019.1
20260902015515 26 180 3.2 4.8 0.00 0.00 0.00 94 1019.2
20260902014520 26 0.0 1.6 0.00 0.00 0.00 95 1019.1
20260902013539 26 180 1.6 4.8 0.00 0.00 0.00 96 1019.1
20260902012538 26 180 1.6 3.2 0.00 0.00 0.00 98 1019.1
20260902011537 26 0.0 0.0 0.00 0.00 0.00 98 1019.2
20260902010516 26 184 1.6 3.2 0.00 0.00 0.00 97 1019.2
20260902005526 26 0.0 0.0 0.00 0.00 0.00 94 1018.8
20260902004532 26 153 1.6 3.2 0.00 0.00 0.00 94 1018.3
20260902003539 27 165 1.6 3.2 0.00 0.00 0.00 91 1017.9
20260902002523 26 180 1.6 3.2 0.00 0.00 0.00 94 1017.8
20260902001528 27 0.0 0.0 0.00 0.00 0.00 93 1017.8
20260902000516 27 0.0 0.0 0.00 0.00 0.00 91 1017.8
20260901235520 27 0.0 0.0 0.00 0.00 0.00 90 1017.6
20260901234525 28 0.0 0.0 0.00 0.00 0.00 88 1017.4
20260901233530 29 180 1.6 4.8 0.00 0.00 0.00 83 1017.6
20260901232517 30 185 1.6 3.2 0.00 0.00 0.00 83 1017.6
20260901231522 31 0.0 0.0 0.00 0.00 0.00 78 1017.6
20260901230527 32 0.0 0.0 0.00 0.00 0.00 75 1017.6
20260901225532 32 244 4.8 9.7 0.00 0.00 0.00 73 1017.6
20260901224559 32 242 4.8 8.0 0.00 0.00 0.00 72 1017.6
20260901223544 33 258 6.4 11.3 0.00 0.00 0.00 70 1017.6
20260901222529 34 241 6.4 9.7 0.00 0.00 0.00 70 1017.6
20260901221515 34 231 6.4 8.0 0.00 0.00 0.00 69 1017.6
20260901220540 33 237 4.8 8.0 0.00 0.00 0.00 71 1017.6
20260901215525 33 250 4.8 8.0 0.00 0.00 0.00 71 1017.8
20260901214611 32 279 6.4 8.0 0.00 0.00 0.00 73 1017.6
20260901213518 32 269 4.8 9.7 0.00 0.00 0.00 72 1017.6
20260901212522 32 254 6.4 9.7 0.00 0.00 0.00 72 1017.7
20260901211527 33 263 4.8 8.0 0.00 0.00 0.00 71 1017.8
20260901210532 34 226 8.0 11.3 0.00 0.00 0.00 69 1017.8
20260901205519 35 257 11.3 12.9 0.00 0.00 0.00 67 1017.8
20260901204524 35 270 6.4 8.0 0.00 0.00 0.00 67 1017.8
20260901203529 35 280 8.0 11.3 0.00 0.00 0.00 65 1017.6
20260901202516 35 253 8.0 16.1 0.00 0.00 0.00 66 1017.8
20260901201521 35 253 9.7 12.9 0.00 0.00 0.00 67 1017.8
20260901200525 35 240 9.7 14.5 0.00 0.00 0.00 66 1017.8
20260901195551 35 252 6.4 9.7 0.00 0.00 0.00 68 1018.1